Location: Gollag?dem
(16.8053°N, 80.8024°E)
Time: 10:13:39
(UTC+00:00)

Cosmos 2082 Rocket - Pass Details

Date: 13 August 2020
Orbit: 835 x 852 km, 71.0° (Epoch: 18 September)

Event Time Altitude Azimuth Distance (km) Brightness Sun altitude
Rises 13:34:41 0° 185° (S) 3,404 5.2 -8.1°
Reaches altitude 10° 13:37:11 10° 181° (S) 2,469 4.5 -8.7°
Maximum altitude 13:42:42 54° 105° (ESE) 1,023 2.3 -9.9°
Drops below altitude 10° 13:48:12 10° 29° (NNE) 2,466 4.5 -11.2°
Sets 13:50:41 0° 25° (NNE) 3,399 5.3 -11.7°
